Location: Unspecified
(45.3712°N, 0.6436°E)
Time: 01:48:09
(UTC+01:00)

N. Korean satellite - Visible Passes

Search period start: 14 November 2019 00:00
Search period end: 24 November 2019 00:00
Orbit: 456 x 506 km, 97.2° (Epoch: 12 November)

Date Brightness Start Highest point End Pass type
(mag) Time Alt. Az. Time Alt. Az. Time Alt. Az.
14 Nov 9.3 06:09:50 10° NE 06:12:53 23° E 06:15:53 10° SSE visible
14 Nov 7.7 18:19:54 10° S 18:23:23 48° W 18:26:58 10° NNW visible
15 Nov 10.2 05:45:42 10° ENE 05:47:18 12° E 05:48:53 10° ESE visible
15 Nov 6.8 07:17:21 10° N 07:20:59 50° WNW 07:24:34 10° SSW visible
15 Nov 6.5 17:54:23 10° SSE 17:57:59 80° ENE 18:01:41 10° N visible
16 Nov 6.8 06:51:55 10° NNE 06:55:39 78° ESE 06:59:20 10° S visible
16 Nov 9.9 19:04:01 10° SW 19:06:15 15° W 19:08:30 10° NW visible
17 Nov 8.3 06:26:44 10° NNE 06:30:13 37° E 06:33:39 10° SSE visible
17 Nov 8.8 18:37:28 10° SSW 18:40:41 29° W 18:43:58 10° NNW visible
18 Nov 9.6 06:01:58 10° NE 06:04:41 19° E 06:07:22 10° SE visible
18 Nov 7.2 18:11:37 10° S 18:15:13 61° W 18:18:53 10° NNW visible
19 Nov 6.6 07:09:10 10° N 07:12:52 64° WNW 07:16:29 10° SSW visible
20 Nov 7.2 06:43:48 10° NNE 06:47:29 61° E 06:51:06 10° S visible
20 Nov 9.6 18:55:21 10° SW 18:58:01 19° W 19:00:43 10° NW visible
21 Nov 8.7 06:18:42 10° NNE 06:22:00 30° E 06:25:14 10° SSE visible
21 Nov 8.4 18:29:03 10° SSW 18:32:28 37° W 18:35:56 10° NNW visible
22 Nov 9.8 05:54:09 10° NE 05:56:25 16° E 05:58:41 10° SE visible
22 Nov 7.1 07:26:31 10° N 07:30:00 38° WNW 07:33:24 10° SW visible
22 Nov 6.8 18:03:21 10° S 18:07:00 78° WSW 18:10:44 10° NNW visible
23 Nov 6.5 07:00:58 10° N 07:04:40 80° WNW 07:08:18 10° SSW visible
23 Nov 10.1 19:13:46 10° WSW 19:15:21 12° W 19:16:56 10° WNW visible
